Weather observations for the past three days for
Wales
| Date | Time (akdt) | Wind (mph) | Vis. (mi.) | Weather | Sky Cond. | Temperature (ºF) | Relative Humidity | Wind Chill (°F) | Heat Index (°F) | Pressure | Precipitation (in) | ||||||
|---|---|---|---|---|---|---|---|---|---|---|---|---|---|---|---|---|---|
| Air | Dwpt | 6 hour | altimeter (in) | sea level (mb) | 1 hr | 3 hr | 6 hr | ||||||||||
| Max. | Min. | ||||||||||||||||
| 05 | 14:56 | NW 7 | 10.00 | Overcast | OVC013 | 30 | 21.9 | 72% | 24 | 30 | 1015.9 | ||||||
| 05 | 13:56 | Calm | 10.00 | Overcast | OVC013 | 30 | 21 | 69% | 30 | 1015.8 | |||||||
| 05 | 12:56 | NE 3 | 10.00 | Overcast | OVC013 | 28 | 21 | 75% | 29.99 | 1015.6 | |||||||
| 05 | 11:56 | NE 3 | 10.00 | Overcast | OVC013 | 26.1 | 21 | 81% | 29.99 | 1015.7 | |||||||
| 05 | 10:56 | NE 5 | 10.00 | Overcast | OVC011 | 25 | 21.9 | 88% | 20 | 29.99 | 1015.7 | ||||||
| 05 | 09:56 | Calm | 10.00 | Overcast | OVC009 | 24.1 | 21.9 | 24.1 | 23 | 91% | 30 | 1015.8 | |||||
| 05 | 08:56 | NE 3 | 10.00 | Overcast | OVC009 | 23 | 21.9 | 96% | 29.99 | 1015.7 | |||||||
| 05 | 07:56 | N 5 | 10.00 | Overcast | OVC009 | 23 | 21.9 | 96% | 18 | 29.99 | 1015.4 | ||||||
| 05 | 06:56 | N 5 | 10.00 | Overcast | OVC009 | 23 | 23 | 100% | 18 | 29.98 | 1015.4 | ||||||
| 05 | 05:56 | N 5 | 10.00 | Overcast | OVC009 | 23 | 23 | 100% | 18 | 29.98 | 1015.4 | ||||||
| 05 | 04:56 | N 3 | 10.00 | Overcast | OVC009 | 23 | 21.9 | 96% | 29.99 | 1015.4 | |||||||
| 05 | 03:56 | Vrbl 5 | 10.00 | Overcast | OVC009 | 23 | 23 | 25 | 23 | 100% | 18 | 29.99 | 1015.6 | ||||
| 05 | 02:56 | Calm | 10.00 | Overcast | OVC009 | 24.1 | 23 | 96% | 30 | 1015.9 | |||||||
| 05 | 01:56 | W 5 | 10.00 | Overcast | OVC009 | 24.1 | 23 | 96% | 19 | 30.01 | 1016.3 | ||||||
| 05 | 00:56 | SW 3 | 10.00 | Overcast | OVC009 | 24.1 | 24.1 | 100% | 30.02 | 1016.6 | |||||||
| 04 | 23:56 | Calm | 10.00 | Overcast | OVC009 | 24.1 | 24.1 | 100% | 30.03 | 1017.0 | |||||||
| 04 | 22:56 | Calm | 10.00 | Overcast | OVC007 | 25 | 25 | 100% | 30.03 | 1017.1 | |||||||
| 04 | 21:56 | W 3 | 10.00 | Overcast | OVC005 | 25 | 25 | 27 | 25 | 100% | 30.04 | 1017.3 | |||||
| 04 | 20:56 | W 7 | 10.00 | Overcast | OVC005 | 26.1 | 25 | 96% | 19 | 30.05 | 1017.5 | ||||||
| 04 | 19:56 | SW 6 | 10.00 | Overcast | OVC005 | 25 | 25 | 100% | 19 | 30.05 | 1017.7 | ||||||
| 04 | 18:56 | SW 5 | 10.00 | Overcast | OVC005 | 26.1 | 26.1 | 100% | 21 | 30.06 | 1018.0 | ||||||
| 04 | 17:56 | S 7 | 10.00 | Overcast | OVC005 | 27 | 26.1 | 96% | 20 | 30.07 | 1018.3 | ||||||
| 04 | 16:56 | SW 7 | 10.00 | Overcast | OVC005 | 26.1 | 26.1 | 100% | 19 | 30.09 | 1018.9 | ||||||
| 04 | 15:56 | SW 9 | 10.00 | Overcast | OVC005 | 26.1 | 26.1 | 26.1 | 24.1 | 100% | 18 | 30.1 | 1019.3 | ||||
| 04 | 14:56 | S 8 | 10.00 | Overcast | OVC005 | 26.1 | 26.1 | 100% | 18 | 30.11 | 1019.7 | ||||||
| 04 | 13:56 | SW 10 | 10.00 | Overcast | OVC005 | 25 | 25 | 100% | 16 | 30.12 | 1020.0 | ||||||
| 04 | 12:56 | SW 8 | 10.00 | Overcast | OVC003 | 25 | 25 | 100% | 17 | 30.13 | 1020.1 | ||||||
| 04 | 11:56 | S 10 | 10.00 | Overcast | OVC003 | 24.1 | 24.1 | 100% | 15 | 30.13 | 1020.4 | ||||||
| 04 | 10:56 | S 9 | 10.00 | Overcast | OVC003 | 24.1 | 24.1 | 100% | 15 | 30.13 | 1020.4 | ||||||
| 04 | 09:56 | S 13 | 9.00 | Light Snow | OVC003 | 24.1 | 24.1 | 26.1 | 24.1 | 100% | 13 | 30.13 | 1020.3 | ||||
| 04 | 08:56 | S 13 | 9.00 | Light Snow | OVC005 | 25 | 25 | 100% | 14 | 30.13 | 1020.3 | ||||||
| 04 | 07:56 | SW 14 | 9.00 | Light Snow | OVC005 | 24.1 | 24.1 | 100% | 13 | 30.12 | 1019.9 | ||||||
| 04 | 05:56 | S 20 | 9.00 | Light Snow | OVC005 | 25 | 25 | 100% | 12 | 30.12 | 1019.8 | ||||||
| 04 | 03:56 | SW 14 | 10.00 | Overcast | OVC007 | 26.1 | 26.1 | 28.9 | 26.1 | 100% | 15 | 30.11 | 1019.6 | ||||
| 04 | 02:56 | SW 14 | 10.00 | Overcast | OVC007 | 26.1 | 26.1 | 100% | 15 | 30.1 | 1019.4 | ||||||
| 04 | 01:56 | S 17 | 9.00 | Light Snow | OVC009 | 27 | 27 | 100% | 15 | 30.1 | 1019.2 | ||||||
| 04 | 00:56 | S 17 | 9.00 | Light Snow | OVC009 | 27 | 27 | 100% | 15 | 30.1 | 1019.2 | ||||||
| 03 | 23:56 | S 16 | 10.00 | Overcast | OVC011 | 28 | 28 | 100% | 17 | 30.09 | 1018.8 | ||||||
| 03 | 22:56 | S 14 | 10.00 | Overcast | FEW009 OVC044 | 28 | 28 | 100% | 18 | 30.08 | 1018.5 | ||||||
| 03 | 21:56 | S 14 | 10.00 | Mostly Cloudy | BKN014 | 28.9 | 28 | 30 | 28.9 | 96% | 19 | 30.07 | 1018.3 | ||||
| 03 | 20:56 | S 14 | 10.00 | Overcast | OVC024 | 28.9 | 28.9 | 100% | 19 | 30.07 | 1018.3 | ||||||
| 03 | 19:56 | S 15 | 10.00 | Overcast | OVC014 | 28.9 | 28 | 96% | 18 | 30.07 | 1018.2 | ||||||
| 03 | 18:56 | SW 16 | 10.00 | Overcast | OVC024 | 28.9 | 27 | 92% | 18 | 30.06 | 1018.1 | ||||||
| 03 | 17:56 | S 17 | 10.00 | Unknown Precip | OVC018 | 28.9 | 28 | 96% | 18 | 30.06 | 1017.8 | ||||||
| 03 | 16:56 | S 17 | 10.00 | Overcast | BKN016 OVC021 | 30 | 28.9 | 96% | 19 | 30.05 | 1017.8 | ||||||
| 03 | 15:56 | SW 20 | 10.00 | Overcast | SCT012 OVC019 | 30 | 28 | 30 | 28 | 92% | 18 | 30.05 | 1017.7 | ||||
| 03 | 14:56 | S 18 | 10.00 | Overcast | BKN014 OVC019 | 28.9 | 28 | 96% | 17 | 30.05 | 1017.7 | ||||||
| 03 | 13:56 | S 21 | 10.00 | Overcast and Breezy | BKN021 OVC029 | 30 | 27 | 88% | 18 | 30.05 | 1017.5 | ||||||
| 03 | 12:56 | S 20 | 10.00 | Overcast | OVC019 | 28.9 | 26.1 | 89% | 17 | 30.04 | 1017.3 | ||||||
| 03 | 11:56 | SW 18 | 10.00 | Overcast | OVC013 | 28.9 | 28 | 96% | 17 | 30.03 | 1016.9 | ||||||
| 03 | 10:56 | S 23 | 10.00 | Overcast and Breezy | OVC010 | 28 | 28 | 100% | 15 | 30.01 | 1016.2 | ||||||
| 03 | 09:56 | S 21 | 9.00 | Light Snow and Breezy | OVC007 | 28 | 28 | 28 | 26.1 | 100% | 15 | 30 | 1016.0 | ||||
| 03 | 08:56 | S 23 | 7.00 | Light Snow and Breezy | OVC009 | 28 | 28 | 100% | 15 | 30 | 1015.8 | ||||||
| 03 | 07:56 | S 18 | 9.00 | Light Snow | OVC013 | 27 | 27 | 100% | 15 | 29.99 | 1015.6 | ||||||
| 03 | 06:56 | S 23 | 10.00 | Overcast and Breezy | FEW011 OVC026 | 27 | 27 | 100% | 13 | 29.99 | 1015.5 | ||||||
| 03 | 05:56 | S 15 | 10.00 | Overcast | OVC026 | 27 | 27 | 100% | 16 | 29.98 | 1015.3 | ||||||
| 03 | 04:56 | S 15 | 10.00 | Overcast | SCT011 OVC024 | 26.1 | 26.1 | 100% | 15 | 29.98 | 1015.3 | ||||||
| 03 | 03:56 | S 13 | 10.00 | Overcast | OVC024 | 26.1 | 25 | 26.1 | 23 | 96% | 16 | 29.98 | 1015.2 | ||||
| 03 | 02:56 | S 14 | 10.00 | Overcast | OVC026 | 26.1 | 24.1 | 92% | 15 | 29.97 | 1014.8 | ||||||
| 02 | 23:56 | S 10 | 10.00 | Fair | CLR | 24.1 | 23 | 96% | 15 | 29.92 | 1013.3 | ||||||
| 02 | 22:56 | SW 8 | 10.00 | Fair | CLR | 23 | 21 | 92% | 15 | 29.9 | 1012.4 | ||||||
| 02 | 21:56 | W 7 | 10.00 | Partly Cloudy | SCT075 | 26.1 | 19.9 | 33.1 | 25 | 78% | 19 | 29.87 | 1011.5 | ||||
| 02 | 20:56 | W 10 | 9.00 | Light Snow | FEW021 BKN030 OVC060 | 27 | 19.9 | 75% | 18 | 29.85 | 1010.9 | ||||||
| 02 | 19:56 | W 14 | 9.00 | Light Snow | OVC017 | 26.1 | 21 | 81% | 15 | 29.84 | 1010.5 | ||||||
| 02 | 18:56 | W 10 | 10.00 | Overcast | OVC021 | 26.1 | 19.9 | 78% | 17 | 29.81 | 1009.6 | ||||||
| 02 | 17:56 | NW 12 | 10.00 | Overcast | BKN025 OVC033 | 27 | 19 | 72% | 17 | 29.79 | 1008.9 | ||||||
| 02 | 16:56 | NW 5 | 10.00 | Mostly Cloudy | BKN017 | 30.9 | 19.9 | 64% | 27 | 29.77 | 1008.1 | ||||||
| 02 | 15:56 | W 5 | 10.00 | Overcast | OVC015 | 32 | 19 | 32 | 23 | 59% | 28 | 29.75 | 1007.3 | ||||
| Date | Time (akdt) | Wind (mph) | Vis. (mi.) | Weather | Sky Cond. | Air | Dwpt | Max. | Min. | Relative Humidity | Wind Chill (°F) | Heat Index (°F) | altimeter (in) | sea level (mb) | 1 hr | 3 hr | 6 hr |
| 6 hour | |||||||||||||||||
| Temperature (ºF) | Pressure | Precipitation (in) | |||||||||||||||